Regional Weather Roundup
Issued by NWS Kansas City/Pleasant Hill, MO

Home | Current Version | Previous Version | Graphics & Text | Print | Product List | Glossary Off
Versions: 1 2 3 4 5 6 7 8 9 10 11 12 13 14 15 16 17 18 19 20 21 22 23 24 25 26 27 28

000
ASUS43 KEAX 251510
RWREAX

WEATHER ROUNDUP FOR EASTERN KANSAS AND NORTHWEST MISSOURI
NATIONAL WEATHER SERVICE KANSAS CITY/PLEASANT HILL MO
1000 AM CDT THU AUG 25 2016

KSZ040-057-103>105-MOZ028-029-037-043-251600-
...KANSAS CITY METROPOLITAN AREA...

CITY           SKY/WX    TMP DP  RH WIND       PRES   REMARKS
K.C. INTL      CLOUDY    73  69  87 SE6       30.08R
K.C. DOWNTOWN  CLOUDY    76  72  87 SE5       30.07R
LEES SUMMIT    CLOUDY    72  71  97 E3        30.10R
OLATHE - IXD   PTSUNNY   74  70  87 W3        30.09F
OLATHE - OJC   CLOUDY    72  70  93 W5        30.10R
LAWRENCE       CLOUDY    76  32  20 MISG      30.08R

$$

MOZ001>008-011>017-020>025-030>033-038>040-044>046-053-054-251600-
...NORTHERN AND CENTRAL MISSOURI...

CITY           SKY/WX    TMP DP  RH WIND       PRES   REMARKS
ST. JOSEPH     HVY RAIN  68  66  93 N16       30.08R FOG
MOSBY          CLOUDY    73  72  94 CALM      30.08R
WHITEMAN AFB   PTSUNNY   74  74 100 W5        30.09R
CLINTON        PTSUNNY   77  72  83 CALM      30.09S
SEDALIA        CLOUDY    77  71  82 VRB3      30.10R
WARSAW         NOT AVBL
CHILLICOTHE      N/A     72  71  97 E5        30.06
KIRKSVILLE     CLOUDY    73  69  87 CALM      30.10R

$$

MOZ041-047>049-056>058-063>065-088>090-097-251600-
...EASTERN AND SOUTHERN MISSOURI...

CITY           SKY/WX    TMP DP  RH WIND       PRES   REMARKS
ST. LOUIS INTL MOSUNNY   86  71  60 SW9       30.07R HX  91
SPIRIT OF STL  MOSUNNY   84  73  69 SW8       30.05R HX  90
COLUMBIA       MOSUNNY   80  71  74 W12       30.09R
JEFFERSON CITY PTSUNNY   80  70  71 SW6       30.08R
ROLLA          SUNNY     79  70  74 SW12      30.10R
OSAGE BEACH    PTSUNNY   80  69  69 W7        30.11R
SPRINGFIELD    SUNNY     81  70  69 SW14      30.11S
BRANSON        SUNNY     81  72  74 SW7       30.15R
JOPLIN         SUNNY     83  70  64 SW13G22   30.09S
WEST PLAINS    SUNNY     82  72  71 W7        30.16R

$$

IAZ060-094-KSZ022-034>040-054-083-096-NEZ052-066-093-251600-
...KANSAS...SOUTHEAST NEBRASKA AND IOWA...

CITY           SKY/WX    TMP DP  RH WIND       PRES   REMARKS
TOPEKA         CLOUDY    72  69  90 N8        30.07S
MANHATTAN      MOSUNNY   69 N/A N/A NE13      30.09R
EMPORIA        CLOUDY    72  68  87 N7        30.09R
CHANUTE        SUNNY     79  71  76 S10       30.06S
WICHITA        CLOUDY    72  66  81 N8        30.10R
OMAHA          CLOUDY    62  58  86 CALM      30.14R
LINCOLN        LGT RAIN  63  59  87 N6        30.14S
FALLS CITY     RAIN      64  63  96 NE7       30.11S
LAMONI         LGT RAIN  66  65  96 CALM      30.13R FOG
DES MOINES     CLOUDY    71  62  73 N6        30.10R

$$





USA.gov is the U.S. government's official web portal to all federal, state and local government web resources and services.